User: anonymous   Login
Location: Unspecified
(0.0000°N, 0.0000°E)
Time: 18:57:32
(UTC+00:00)
Language:

FEDSAT - Orbit

View from above orbital plane
View from above orbital plane
View from above satellite
View from above satellite

Ground track
Ground track

The orbit data is extracted from the following two-line orbital elements,

1 27598U 02056B   19077.85726734 -.00000012 +00000-0 +12384-4 0  9996
2 27598 098.5204 025.4527 0009468 156.5623 203.5992 14.28677703847667
Epoch (UTC): 18 March 2019 20:34:27
Eccentricity: 0.0009468
inclination: 98.5204°
perigee height: 789 km
apogee height: 803 km
right ascension of ascending node: 25.4527°
argument of perigee: 156.5623°
revolutions per day: 14.28677703
mean anomaly at epoch: 203.5992°
orbit number at epoch: 84766

The dashed part of the orbit path shows where the satellite is in the earth's shadow,  

DLR